Time,TemperatureF,DewpointF,PressureIn,WindDirection,WindDirectionDegrees,WindSpeedMPH,WindSpeedGustMPH,Humidity,HourlyPrecipIn,Conditions,Clouds,dailyrainin,SoftwareType,DateUTC
2013-05-28 00:03:00,77.0,69.0,30.10,East,92,10.0,18.0,76,-99.99,,,-99.99,,2013-05-28 04:03:00,
2013-05-28 00:13:00,77.0,69.0,30.10,East,90,8.0,22.0,77,-99.99,,,-99.99,,2013-05-28 04:13:00,
2013-05-28 00:23:00,77.0,69.0,30.10,East,90,8.0,22.0,77,-99.99,,,-99.99,,2013-05-28 04:23:00,
2013-05-28 00:33:00,77.0,69.0,30.11,East,98,10.0,23.0,75,-99.99,,,-99.99,,2013-05-28 04:33:00,
2013-05-28 00:43:00,77.0,69.0,30.11,East,91,9.0,18.0,76,-99.99,,,-99.99,,2013-05-28 04:43:00,
2013-05-28 00:53:00,76.0,69.0,30.11,East,96,9.0,17.0,76,-99.99,,,-99.99,,2013-05-28 04:53:00,
2013-05-28 01:02:00,76.0,69.0,30.11,East,96,9.0,17.0,76,-99.99,,,-99.99,,2013-05-28 05:02:00,
2013-05-28 01:12:00,76.0,69.0,30.10,East,91,8.0,19.0,77,-99.99,,,-99.99,,2013-05-28 05:12:00,
2013-05-28 01:22:00,76.0,69.0,30.10,East,91,8.0,19.0,77,-99.99,,,-99.99,,2013-05-28 05:22:00,
2013-05-28 01:33:00,77.0,69.0,30.10,East,91,9.0,23.0,77,-99.99,,,-99.99,,2013-05-28 05:33:00,
2013-05-28 01:42:00,76.0,69.0,30.10,East,99,9.0,15.0,77,-99.99,,,-99.99,,2013-05-28 05:42:00,
2013-05-28 01:52:00,77.0,69.0,30.10,East,98,9.0,18.0,77,-99.99,,,-99.99,,2013-05-28 05:52:00,
2013-05-28 02:02:00,77.0,69.0,30.10,East,98,9.0,18.0,77,-99.99,,,-99.99,,2013-05-28 06:02:00,
2013-05-28 02:12:00,77.0,69.0,30.09,East,99,9.0,23.0,77,-99.99,,,-99.99,,2013-05-28 06:12:00,
2013-05-28 02:22:00,77.0,69.0,30.09,East,99,9.0,23.0,77,-99.99,,,-99.99,,2013-05-28 06:22:00,
2013-05-28 02:32:00,76.0,69.0,30.09,ESE,107,8.0,18.0,77,-99.99,,,-99.99,,2013-05-28 06:32:00,
2013-05-28 02:42:00,76.0,69.0,30.09,East,101,9.0,19.0,76,-99.99,,,-99.99,,2013-05-28 06:42:00,
2013-05-28 02:52:00,77.0,69.0,30.08,ESE,104,9.0,17.0,77,-99.99,,,-99.99,,2013-05-28 06:52:00,
2013-05-28 03:02:00,77.0,69.0,30.08,ESE,104,9.0,17.0,77,-99.99,,,-99.99,,2013-05-28 07:02:00,
2013-05-28 03:11:00,77.0,69.0,30.07,ESE,103,10.0,19.0,77,-99.99,,,-99.99,,2013-05-28 07:11:00,
2013-05-28 03:22:00,77.0,69.0,30.07,ESE,103,10.0,19.0,77,-99.99,,,-99.99,,2013-05-28 07:22:00,
2013-05-28 03:32:00,77.0,69.0,30.07,ESE,103,10.0,22.0,76,-99.99,,,-99.99,,2013-05-28 07:32:00,
2013-05-28 03:42:00,76.0,69.0,30.06,ESE,103,9.0,19.0,77,-99.99,,,-99.99,,2013-05-28 07:42:00,
2013-05-28 03:52:00,77.0,70.0,30.06,East,100,9.0,19.0,78,-99.99,,,-99.99,,2013-05-28 07:52:00,
2013-05-28 04:02:00,77.0,70.0,30.06,East,100,9.0,19.0,78,-99.99,,,-99.99,,2013-05-28 08:02:00,
2013-05-28 04:12:00,77.0,70.0,30.06,ESE,102,10.0,19.0,79,-99.99,,,-99.99,,2013-05-28 08:12:00,
2013-05-28 04:22:00,77.0,70.0,30.06,ESE,102,10.0,19.0,79,-99.99,,,-99.99,,2013-05-28 08:22:00,
2013-05-28 04:32:00,76.0,70.0,30.05,ESE,104,10.0,18.0,80,-99.99,,,-99.99,,2013-05-28 08:32:00,
2013-05-28 04:42:00,76.0,70.0,30.05,East,99,9.0,19.0,80,-99.99,,,-99.99,,2013-05-28 08:42:00,
2013-05-28 04:52:00,76.0,70.0,30.05,East,101,9.0,19.0,80,-99.99,,,-99.99,,2013-05-28 08:52:00,
2013-05-28 05:01:00,76.0,70.0,30.05,East,101,9.0,19.0,80,-99.99,,,-99.99,,2013-05-28 09:01:00,
2013-05-28 05:11:00,76.0,70.0,30.05,East,99,10.0,20.0,80,-99.99,,,-99.99,,2013-05-28 09:11:00,
2013-05-28 05:21:00,76.0,70.0,30.05,East,99,10.0,20.0,80,-99.99,,,-99.99,,2013-05-28 09:21:00,
2013-05-28 05:33:00,76.0,70.0,30.04,ESE,103,9.0,19.0,80,-99.99,,,-99.99,,2013-05-28 09:33:00,
2013-05-28 05:43:00,77.0,69.0,30.04,ESE,104,10.0,23.0,78,-99.99,,,-99.99,,2013-05-28 09:43:00,
2013-05-28 05:54:00,77.0,69.0,30.04,ESE,106,10.0,19.0,77,-99.99,,,-99.99,,2013-05-28 09:54:00,
2013-05-28 06:03:00,77.0,69.0,30.04,ESE,106,10.0,19.0,77,-99.99,,,-99.99,,2013-05-28 10:03:00,
2013-05-28 06:12:00,77.0,69.0,30.04,ESE,103,10.0,20.0,77,-99.99,,,-99.99,,2013-05-28 10:12:00,
2013-05-28 06:23:00,77.0,69.0,30.04,ESE,103,10.0,20.0,77,-99.99,,,-99.99,,2013-05-28 10:23:00,
2013-05-28 06:32:00,77.0,70.0,30.04,ESE,107,9.0,18.0,78,-99.99,,,-99.99,,2013-05-28 10:32:00,
2013-05-28 06:43:00,77.0,70.0,30.05,ESE,102,11.0,20.0,77,-99.99,,,-99.99,,2013-05-28 10:43:00,
2013-05-28 06:53:00,77.0,70.0,30.05,ESE,111,10.0,18.0,78,-99.99,,,-99.99,,2013-05-28 10:53:00,
2013-05-28 07:02:00,77.0,70.0,30.05,ESE,111,10.0,18.0,78,-99.99,,,-99.99,,2013-05-28 11:02:00,
2013-05-28 07:11:00,77.0,69.0,30.06,ESE,111,9.0,19.0,77,-99.99,,,-99.99,,2013-05-28 11:11:00,
2013-05-28 07:22:00,77.0,69.0,30.06,ESE,111,9.0,19.0,77,-99.99,,,-99.99,,2013-05-28 11:22:00,
2013-05-28 07:32:00,77.0,69.0,30.06,ESE,111,9.0,19.0,77,-99.99,,,-99.99,,2013-05-28 11:32:00,
2013-05-28 07:42:00,77.0,70.0,30.07,ESE,109,10.0,19.0,77,-99.99,,,-99.99,,2013-05-28 11:42:00,
2013-05-28 07:52:00,77.0,70.0,30.07,ESE,115,9.0,18.0,77,-99.99,,,-99.99,,2013-05-28 11:52:00,
2013-05-28 08:02:00,77.0,70.0,30.07,ESE,115,9.0,18.0,77,-99.99,,,-99.99,,2013-05-28 12:02:00,
2013-05-28 08:11:00,77.0,70.0,30.07,ESE,113,10.0,18.0,77,-99.99,,,-99.99,,2013-05-28 12:11:00,
2013-05-28 08:22:00,77.0,70.0,30.07,ESE,113,10.0,18.0,77,-99.99,,,-99.99,,2013-05-28 12:22:00,
2013-05-28 08:32:00,77.0,70.0,30.07,ESE,113,10.0,18.0,77,-99.99,,,-99.99,,2013-05-28 12:32:00,
2013-05-28 08:42:00,78.0,70.0,30.07,ESE,110,9.0,20.0,77,-99.99,,,-99.99,,2013-05-28 12:42:00,
2013-05-28 08:52:00,78.0,70.0,30.08,ESE,112,9.0,17.0,75,-99.99,,,-99.99,,2013-05-28 12:52:00,
2013-05-28 09:01:00,78.0,70.0,30.08,ESE,112,9.0,17.0,75,-99.99,,,-99.99,,2013-05-28 13:01:00,
2013-05-28 09:11:00,79.0,70.0,30.08,ESE,112,9.0,20.0,74,-99.99,,,-99.99,,2013-05-28 13:11:00,
2013-05-28 09:22:00,79.0,70.0,30.08,ESE,112,9.0,20.0,74,-99.99,,,-99.99,,2013-05-28 13:22:00,
2013-05-28 09:32:00,79.0,70.0,30.09,ESE,114,10.0,21.0,73,-99.99,,,-99.99,,2013-05-28 13:32:00,
2013-05-28 09:42:00,79.0,70.0,30.09,ESE,114,11.0,21.0,72,-99.99,,,-99.99,,2013-05-28 13:42:00,
2013-05-28 09:52:00,78.0,71.0,30.10,ESE,118,10.0,20.0,78,-99.99,,,-99.99,,2013-05-28 13:52:00,
2013-05-28 10:02:00,78.0,71.0,30.10,ESE,118,10.0,20.0,78,-99.99,,,-99.99,,2013-05-28 14:02:00,
2013-05-28 10:12:00,79.0,71.0,30.10,ESE,122,11.0,22.0,77,-99.99,,,-99.99,,2013-05-28 14:12:00,
2013-05-28 10:22:00,79.0,71.0,30.10,ESE,122,11.0,22.0,77,-99.99,,,-99.99,,2013-05-28 14:22:00,
2013-05-28 10:32:00,79.0,71.0,30.10,ESE,122,11.0,22.0,77,-99.99,,,-99.99,,2013-05-28 14:32:00,
2013-05-28 10:42:00,80.0,71.0,30.09,ESE,119,11.0,21.0,72,-99.99,,,-99.99,,2013-05-28 14:42:00,
2013-05-28 10:52:00,81.0,71.0,30.09,ESE,119,11.0,20.0,71,-99.99,,,-99.99,,2013-05-28 14:52:00,
2013-05-28 11:01:00,81.0,71.0,30.09,ESE,119,11.0,20.0,71,-99.99,,,-99.99,,2013-05-28 15:01:00,
2013-05-28 11:11:00,81.0,71.0,30.09,ESE,120,11.0,21.0,71,-99.99,,,-99.99,,2013-05-28 15:11:00,
2013-05-28 11:21:00,81.0,71.0,30.09,ESE,120,11.0,21.0,71,-99.99,,,-99.99,,2013-05-28 15:21:00,
2013-05-28 11:33:00,81.0,71.0,30.09,ESE,113,10.0,20.0,71,-99.99,,,-99.99,,2013-05-28 15:33:00,
2013-05-28 11:43:00,81.0,71.0,30.10,ESE,117,11.0,21.0,71,-99.99,,,-99.99,,2013-05-28 15:43:00,
2013-05-28 11:53:00,81.0,71.0,30.10,ESE,118,11.0,24.0,71,-99.99,,,-99.99,,2013-05-28 15:53:00,
2013-05-28 12:03:00,81.0,71.0,30.10,ESE,118,11.0,24.0,71,-99.99,,,-99.99,,2013-05-28 16:03:00,
2013-05-28 12:13:00,81.0,71.0,30.10,ESE,116,10.0,18.0,72,-99.99,,,-99.99,,2013-05-28 16:13:00,
2013-05-28 12:23:00,81.0,71.0,30.10,ESE,116,10.0,18.0,72,-99.99,,,-99.99,,2013-05-28 16:23:00,
2013-05-28 12:33:00,81.0,71.0,30.10,ESE,114,9.0,18.0,71,-99.99,,,-99.99,,2013-05-28 16:33:00,
2013-05-28 12:42:00,81.0,71.0,30.10,ESE,116,10.0,18.0,72,-99.99,,,-99.99,,2013-05-28 16:42:00,
2013-05-28 12:53:00,81.0,71.0,30.10,ESE,112,11.0,20.0,71,-99.99,,,-99.99,,2013-05-28 16:53:00,
2013-05-28 13:02:00,81.0,71.0,30.10,ESE,112,11.0,20.0,71,-99.99,,,-99.99,,2013-05-28 17:02:00,
2013-05-28 13:12:00,81.0,71.0,30.10,ESE,107,10.0,17.0,71,-99.99,,,-99.99,,2013-05-28 17:12:00,
2013-05-28 13:22:00,81.0,71.0,30.10,ESE,107,10.0,17.0,71,-99.99,,,-99.99,,2013-05-28 17:22:00,
2013-05-28 13:32:00,80.0,71.0,30.09,ESE,106,11.0,20.0,73,-99.99,,,-99.99,,2013-05-28 17:32:00,
2013-05-28 13:42:00,80.0,71.0,30.09,ESE,113,10.0,19.0,73,-99.99,,,-99.99,,2013-05-28 17:42:00,
2013-05-28 13:52:00,79.0,70.0,30.09,ESE,114,11.0,21.0,75,-99.99,,,-99.99,,2013-05-28 17:52:00,
2013-05-28 14:01:00,79.0,70.0,30.09,ESE,114,11.0,21.0,75,-99.99,,,-99.99,,2013-05-28 18:01:00,
2013-05-28 14:11:00,79.0,70.0,30.09,SE,131,11.0,23.0,71,-99.99,,,-99.99,,2013-05-28 18:11:00,
2013-05-28 14:22:00,79.0,70.0,30.09,SE,131,11.0,23.0,71,-99.99,,,-99.99,,2013-05-28 18:22:00,
2013-05-28 14:32:00,80.0,70.0,30.09,SE,130,8.0,17.0,71,-99.99,,,-99.99,,2013-05-28 18:32:00,
2013-05-28 14:42:00,79.0,70.0,30.09,SE,128,8.0,15.0,73,-99.99,,,-99.99,,2013-05-28 18:42:00,
2013-05-28 14:52:00,80.0,71.0,30.09,ESE,120,7.0,12.0,74,-99.99,,,-99.99,,2013-05-28 18:52:00,
2013-05-28 15:01:00,80.0,71.0,30.09,ESE,120,7.0,12.0,74,-99.99,,,-99.99,,2013-05-28 19:01:00,
2013-05-28 15:11:00,79.0,71.0,30.08,ESE,119,7.0,14.0,76,-99.99,,,-99.99,,2013-05-28 19:11:00,
2013-05-28 15:21:00,79.0,71.0,30.08,ESE,119,7.0,14.0,76,-99.99,,,-99.99,,2013-05-28 19:21:00,
2013-05-28 15:32:00,78.0,71.0,30.08,ESE,106,6.0,13.0,78,-99.99,,,-99.99,,2013-05-28 19:32:00,
2013-05-28 15:42:00,80.0,71.0,30.07,East,97,10.0,18.0,75,-99.99,,,-99.99,,2013-05-28 19:42:00,
2013-05-28 15:52:00,80.0,71.0,30.07,East,94,10.0,19.0,73,-99.99,,,-99.99,,2013-05-28 19:52:00,
2013-05-28 16:02:00,80.0,71.0,30.07,East,94,10.0,19.0,73,-99.99,,,-99.99,,2013-05-28 20:02:00,
2013-05-28 16:11:00,80.0,71.0,30.06,East,95,10.0,21.0,73,-99.99,,,-99.99,,2013-05-28 20:11:00,
2013-05-28 16:22:00,80.0,71.0,30.06,East,95,10.0,21.0,73,-99.99,,,-99.99,,2013-05-28 20:22:00,
2013-05-28 16:32:00,79.0,71.0,30.06,East,96,10.0,21.0,75,-99.99,,,-99.99,,2013-05-28 20:32:00,
2013-05-28 16:42:00,80.0,72.0,30.06,East,96,10.0,24.0,76,-99.99,,,-99.99,,2013-05-28 20:42:00,
2013-05-28 16:52:00,79.0,71.0,30.06,East,98,10.0,20.0,76,-99.99,,,-99.99,,2013-05-28 20:52:00,
2013-05-28 17:02:00,79.0,71.0,30.06,East,98,10.0,20.0,76,-99.99,,,-99.99,,2013-05-28 21:02:00,
2013-05-28 17:11:00,79.0,71.0,30.06,ESE,102,10.0,26.0,77,-99.99,,,-99.99,,2013-05-28 21:11:00,
2013-05-28 17:22:00,79.0,71.0,30.06,ESE,102,10.0,26.0,77,-99.99,,,-99.99,,2013-05-28 21:22:00,
2013-05-28 17:33:00,77.0,70.0,30.06,SE,133,10.0,20.0,80,-99.99,,,-99.99,,2013-05-28 21:33:00,
2013-05-28 17:43:00,76.0,70.0,30.06,ESE,120,8.0,19.0,83,-99.99,,,-99.99,,2013-05-28 21:43:00,
2013-05-28 17:53:00,76.0,69.0,30.06,ESE,118,11.0,22.0,79,-99.99,,,-99.99,,2013-05-28 21:53:00,
2013-05-28 18:02:00,76.0,69.0,30.06,ESE,118,11.0,22.0,79,-99.99,,,-99.99,,2013-05-28 22:02:00,
2013-05-28 18:13:00,75.0,69.0,30.06,ESE,112,9.0,18.0,79,-99.99,,,-99.99,,2013-05-28 22:13:00,
2013-05-28 18:22:00,75.0,69.0,30.06,ESE,112,9.0,18.0,79,-99.99,,,-99.99,,2013-05-28 22:22:00,
2013-05-28 18:33:00,76.0,70.0,30.05,ESE,113,8.0,16.0,80,-99.99,,,-99.99,,2013-05-28 22:33:00,
2013-05-28 18:42:00,77.0,71.0,30.05,ESE,113,7.0,12.0,82,-99.99,,,-99.99,,2013-05-28 22:42:00,
2013-05-28 18:52:00,77.0,72.0,30.05,ESE,112,7.0,15.0,84,-99.99,,,-99.99,,2013-05-28 22:52:00,
2013-05-28 19:02:00,77.0,72.0,30.05,ESE,112,7.0,15.0,84,-99.99,,,-99.99,,2013-05-28 23:02:00,
2013-05-28 19:11:00,78.0,71.0,30.05,ESE,105,10.0,22.0,80,-99.99,,,-99.99,,2013-05-28 23:11:00,
2013-05-28 19:22:00,78.0,71.0,30.05,ESE,105,10.0,22.0,80,-99.99,,,-99.99,,2013-05-28 23:22:00,
2013-05-28 19:32:00,78.0,71.0,30.05,ESE,105,10.0,22.0,80,-99.99,,,-99.99,,2013-05-28 23:32:00,
2013-05-28 19:42:00,75.0,69.0,30.05,SSE,154,8.0,14.0,80,-99.99,,,-99.99,,2013-05-28 23:42:00,
2013-05-28 19:52:00,75.0,70.0,30.06,SE,142,11.0,24.0,85,-99.99,,,-99.99,,2013-05-28 23:52:00,
2013-05-28 20:02:00,75.0,70.0,30.06,SE,142,11.0,24.0,85,-99.99,,,-99.99,,2013-05-29 00:02:00,
2013-05-28 20:11:00,72.0,69.0,30.07,SE,135,9.0,18.0,90,-99.99,,,-99.99,,2013-05-29 00:11:00,
2013-05-28 20:22:00,72.0,69.0,30.07,SE,135,9.0,18.0,90,-99.99,,,-99.99,,2013-05-29 00:22:00,
2013-05-28 20:32:00,72.0,69.0,30.06,SE,129,9.0,17.0,90,-99.99,,,-99.99,,2013-05-29 00:32:00,
2013-05-28 20:42:00,72.0,69.0,30.06,SE,131,9.0,17.0,89,-99.99,,,-99.99,,2013-05-29 00:42:00,
2013-05-28 20:52:00,73.0,69.0,30.07,SE,130,9.0,16.0,87,-99.99,,,-99.99,,2013-05-29 00:52:00,
2013-05-28 21:01:00,73.0,69.0,30.07,SE,130,9.0,16.0,87,-99.99,,,-99.99,,2013-05-29 01:01:00,
2013-05-28 21:11:00,74.0,70.0,30.06,SE,133,9.0,18.0,86,-99.99,,,-99.99,,2013-05-29 01:11:00,
2013-05-28 21:22:00,74.0,70.0,30.06,SE,133,9.0,18.0,86,-99.99,,,-99.99,,2013-05-29 01:22:00,
2013-05-28 21:32:00,74.0,70.0,30.05,SE,126,9.0,18.0,87,-99.99,,,-99.99,,2013-05-29 01:32:00,
2013-05-28 21:42:00,74.0,71.0,30.05,ESE,116,9.0,20.0,88,-99.99,,,-99.99,,2013-05-29 01:42:00,
2013-05-28 21:52:00,75.0,70.0,30.06,ESE,116,8.0,17.0,85,-99.99,,,-99.99,,2013-05-29 01:52:00,
2013-05-28 22:02:00,75.0,70.0,30.06,ESE,116,8.0,17.0,85,-99.99,,,-99.99,,2013-05-29 02:02:00,
2013-05-28 22:12:00,75.0,70.0,30.06,ESE,112,8.0,15.0,85,-99.99,,,-99.99,,2013-05-29 02:12:00,
2013-05-28 22:21:00,75.0,70.0,30.06,ESE,112,8.0,15.0,85,-99.99,,,-99.99,,2013-05-29 02:21:00,
2013-05-28 22:32:00,75.0,70.0,30.07,ESE,117,10.0,18.0,85,-99.99,,,-99.99,,2013-05-29 02:32:00,
2013-05-28 22:42:00,75.0,70.0,30.07,SE,125,9.0,16.0,82,-99.99,,,-99.99,,2013-05-29 02:42:00,
2013-05-28 22:52:00,76.0,69.0,30.06,ESE,118,9.0,16.0,78,-99.99,,,-99.99,,2013-05-29 02:52:00,
2013-05-28 23:02:00,76.0,69.0,30.06,ESE,118,9.0,16.0,78,-99.99,,,-99.99,,2013-05-29 03:02:00,
2013-05-28 23:12:00,76.0,69.0,30.07,ESE,111,9.0,17.0,78,-99.99,,,-99.99,,2013-05-29 03:12:00,
2013-05-28 23:22:00,76.0,69.0,30.07,ESE,111,9.0,17.0,78,-99.99,,,-99.99,,2013-05-29 03:22:00,
2013-05-28 23:33:00,77.0,69.0,30.08,ESE,111,10.0,21.0,76,-99.99,,,-99.99,,2013-05-29 03:33:00,
2013-05-28 23:43:00,77.0,70.0,30.08,ESE,113,11.0,22.0,80,-99.99,,,-99.99,,2013-05-29 03:43:00,
2013-05-28 23:53:00,76.0,71.0,30.08,ESE,117,9.0,20.0,82,-99.99,,,-99.99,,2013-05-29 03:53:00,